sat.trackr.live / text

‹ back to catalog

STARLINK-11662 [DTC]

NORAD 63754 · 2025-089D

PAYLOAD ACTIVE UNKNOWN

§ Identity

Operator
Country
US
Launch date
2025-04-29
Launch site
AFETR
Launch vehicle
Mass (kg)
RCS (m²)

Purposes: comms

External: N2YO · Heavens-Above · Gunter

§ Orbital elements

Epoch: 2026-09-20T19:42:29.803392Z

Period
91.67 min
Inclination
43.0033°
Eccentricity
0.0003240
Mean motion
15.70889194 rev/d
Perigee alt
354.2 km
Apogee alt
358.5 km
Semi-major
6,734.5 km
B*
9.9177e-4
RAAN
196.1444°
Arg perigee
301.0096°
Mean anomaly
59.0454°
Rev number
8,087

§ Raw data

STARLINK-11662 [DTC]1 63754U 25089D   26263.82117828  .00129090  00000+0  99177-3 0  99912 63754  43.0033 196.1444 0003240 301.0096  59.0454 15.70889194 80879

JSON: /api/v1/satellites/63754 · /tle

For live sub-satellite position, see the globe view (requires WebGL).

§ Visibility from observer

Set your observer location to see the next 7 days of passes ≥ 10°. The values pass through the URL so the page stays shareable.

No JS? Fill the form by hand. The geolocation button needs JavaScript.